Location: Ballingbuur
(53.0000°N, 5.7667°E)
Time: 18:21:53
(UTC+00:00)

Cosmos 1680 Rocket - Visible Passes

Search period start: 16 April 2021 00:00
Search period end: 26 April 2021 00:00
Orbit: 760 x 781 km, 74.1° (Epoch: 16 April)

Date Brightness Start Highest point End Pass type
(mag) Time Alt. Az. Time Alt. Az. Time Alt. Az.
16 Apr 6.2 00:15:22 10° N 00:18:46 17° NE 00:22:10 10° ENE visible
16 Apr 4.0 01:56:45 10° NNW 02:02:01 62° ENE 02:07:16 10° SE visible
16 Apr 4.5 03:39:27 10° NW 03:43:45 26° W 03:48:04 10° SSW visible
16 Apr 6.7 20:10:46 10° NW 20:12:03 11° NNW 20:13:20 10° N visible
16 Apr 6.4 23:39:27 10° N 23:41:55 13° NNE 23:44:23 10° ENE visible
17 Apr 4.7 01:20:29 10° NNW 01:25:32 42° NE 01:30:35 10° SE visible
17 Apr 4.0 03:02:45 10° NW 03:07:38 39° WSW 03:12:32 10° S visible
17 Apr 6.5 19:32:31 10° WNW 19:35:08 14° NNW 19:37:46 10° N visible
17 Apr 6.6 23:04:03 10° NNE 23:05:00 10° NNE 23:05:56 10° NE visible
18 Apr 5.3 00:44:17 10° NNW 00:48:58 30° NE 00:53:38 10° ESE visible
18 Apr 3.5 02:26:14 10° NNW 02:31:27 59° WSW 02:36:39 10° S visible
19 Apr 5.7 00:08:09 10° N 00:12:18 23° NE 00:16:28 10° E visible
19 Apr 3.5 01:49:49 10° NNW 01:55:09 88° WSW 02:00:20 11° SSE visible
19 Apr 5.0 03:33:17 10° WNW 03:36:31 17° W 03:39:45 10° SW visible
19 Apr 6.1 23:32:05 10° N 23:35:33 17° NE 23:39:01 10° ENE visible
20 Apr 3.9 01:13:30 10° NNW 01:18:46 63° ENE 01:23:26 13° SE visible
20 Apr 4.6 02:56:14 10° NW 03:00:30 25° W 03:03:40 15° SW visible
20 Apr 6.7 19:27:39 10° NW 19:28:51 11° NNW 19:30:02 10° NNW visible
20 Apr 6.2 22:56:10 10° N 22:58:43 13° NNE 23:01:16 10° ENE visible
21 Apr 4.6 00:37:14 10° NNW 00:42:19 43° NE 00:46:49 13° SE visible
21 Apr 4.1 02:19:31 10° NW 02:24:24 38° WSW 02:27:04 23° SSW visible
21 Apr 6.4 22:20:40 10° NNE 22:21:48 11° NNE 22:22:54 10° NE visible
22 Apr 5.2 00:01:02 10° NNW 00:05:44 31° NE 00:10:23 10° ESE visible
22 Apr 3.6 01:42:59 10° NNW 01:48:12 58° WSW 01:50:39 30° S visible
22 Apr 5.6 23:24:54 10° N 23:29:06 23° NE 23:33:17 10° E visible
23 Apr 3.4 01:06:35 10° NNW 01:11:55 86° WSW 01:14:21 33° SSE visible
23 Apr 5.1 02:50:06 10° WNW 02:53:15 16° W 02:54:38 15° WSW visible
23 Apr 5.9 22:48:49 10° N 22:52:21 17° NE 22:55:52 10° E visible
24 Apr 3.8 00:30:15 10° NNW 00:35:33 65° ENE 00:38:10 30° SE visible
24 Apr 4.6 02:13:01 10° NW 02:17:15 25° W 02:18:26 23° WSW visible
24 Apr 6.1 22:12:53 10° N 22:15:30 14° NNE 22:18:08 10° ENE visible
24 Apr 4.5 23:53:59 10° NNW 23:59:06 44° NE 00:02:03 23° ESE visible
25 Apr 4.1 01:36:18 10° NW 01:41:09 37° WSW 01:42:19 33° SW visible
25 Apr 6.3 21:37:19 10° N 21:38:35 11° NNE 21:39:52 10° NE visible
25 Apr 5.0 23:17:46 10° NNW 23:22:31 32° NE 23:25:59 16° ESE visible
